Location: Colonia Mina de C?rbuni
(46.1667°N, 22.7167°E)
Time: 18:18:05
(UTC+00:00)

In-Cosmos 22 Rocket - Pass Details

Date: 04 February 2023
Orbit: 789 x 888 km, 81.2° (Epoch: 29 March)

Event Time Altitude Azimuth Distance (km) Brightness Sun altitude
Rises 16:31:45 0° 176° (S) 3,464 7.5 -9.7°
Reaches altitude 10° 16:34:12 10° 173° (S) 2,537 6.8 -10.1°
Maximum altitude 16:39:52 58° 95° (E) 1,031 4.4 -11.0°
Drops below altitude 10° 16:45:35 10° 18° (NNE) 2,561 6.4 -12.0°
Sets 16:48:05 0° 15° (NNE) 3,499 7.2 -12.4°
